Flag for U.S.A. Weather past 2 weeks in Tempe, Arizona, U.S.A.

Now
53 °F

Passing clouds.


Feels Like: 51 °F
Forecast: 47 / 62 °F
Wind: 7 mph from Southeast

Location: Phoenix Sky Harbor International Airport

Current Time: Dec 18, 2014 at 12:51:36 AM

Latest Report: Dec 17, 2014 at 11:51 PM


Visibility: 10 mi

Pressure: 30.09 "Hg

Humidity: 83%

Dew point: 48 °F

Location of TempeLocation

Historic Weather in Tempe — Graph

°F

Tempe temperature yesterday

Maximum temperature yesterday: 60 °F (at 3:51 PM)
Minimum temperature yesterday: 51 °F (at 4:51 AM)
Average temperature yesterday: 56 °F

Past Weeks' High & Low Weather Summary

 TemperatureHumidityPressure
High78 °F (Dec 9, 2:51 PM)96% (Dec 4, 5:51 AM)30.18 "Hg (Dec 4, 5:51 AM)
Low46 °F (Dec 14, 6:51 AM)28% (Dec 8, 12:51 PM)29.87 "Hg (Dec 10, 3:51 PM)
Average62 °F64%30.01 "Hg
* Reported Dec 2 10:51 PM — Dec 17 10:51 PM, Tempe, Weather by CustomWeather, © 2014

Note: Actual official high and low records may vary slightly from our data, if they occured in-between our weather recording intervals... More about our weather records

Advertising

Tempe weather history for previous 24 hours

 ConditionsComfort  
Time TempWeatherWind HumidityBarometerVisibility
10:51 PM
Dec 17
54 °FPartly cloudy.5 mph80%30.10 "Hg10 mi
9:51 PM55 °FPartly cloudy.7 mph72%30.09 "Hg10 mi
8:51 PM55 °FPartly cloudy.5 mph72%30.08 "Hg10 mi
7:51 PM56 °FPassing clouds.7 mph70%30.07 "Hg10 mi
6:51 PM58 °FMostly cloudy.5 mph62%30.06 "Hg10 mi
5:51 PM59 °FMostly cloudy.8 mph58%30.05 "Hg10 mi
4:51 PM59 °FPartly sunny.3 mph58%30.03 "Hg10 mi
3:51 PM60 °FPartly sunny.5 mph56%30.02 "Hg10 mi
2:51 PM59 °FLight rain. Broken clouds.3 mph58%30.02 "Hg10 mi
1:51 PM58 °FCloudy.No wind62%30.03 "Hg10 mi
12:51 PM58 °FCloudy.6 mph65%30.03 "Hg10 mi
11:51 AM59 °FBroken clouds.6 mph67%30.06 "Hg10 mi
10:51 AM57 °FBroken clouds.7 mph72%30.08 "Hg10 mi
9:51 AM54 °FMostly cloudy.7 mph83%30.06 "Hg10 mi
8:51 AM53 °FMostly cloudy.7 mph83%30.03 "Hg10 mi
7:51 AM52 °FMostly cloudy.5 mph89%30.02 "Hg10 mi
6:51 AM52 °FOvercast.5 mph86%30.01 "Hg10 mi
5:51 AM51 °FLight rain. Overcast.8 mph89%29.98 "Hg10 mi
4:51 AM51 °FLight rain. Mostly cloudy.7 mph89%29.98 "Hg9 mi
3:51 AM53 °FLight rain. Mostly cloudy.7 mph86%29.98 "Hg9 mi
2:51 AM55 °FLight rain. Overcast.5 mph77%29.98 "Hg10 mi
1:51 AM56 °FLight rain. Mostly cloudy.No wind65%29.96 "Hg10 mi
12:51 AM58 °FMostly cloudy.7 mph47%29.97 "Hg10 mi
Weather by CustomWeather, © 2014

See weather overviewHow to use our weather pages